1488175200.64,60800,9.13,73238.5,-5.67,-10.75,-10.49,0,*55
1488175201.84,60801,9.13,73232.0,-5.67,-10.85,-10.53,0,*50
1488175203.05,60802,9.13,73234.5,-5.67,-10.85,-10.53,0,*53
1488175204.25,60803,9.13,73234.0,-5.67,-10.85,-10.53,0,*52
1488175205.51,60804,9.13,73234.5,-5.69,-10.93,-10.63,0,*5F
1488175206.78,60805,9.13,73236.0,-5.69,-10.93,-10.63,0,*5E
1488175208.03,60806,9.13,73244.5,-5.69,-10.85,-10.63,0,*5A
1488175209.27,60807,9.13,73246.0,-5.71,-10.79,-10.53,0,*52
1488175210.54,60808,9.13,73244.0,-5.71,-10.71,-10.41,0,*56
1488175211.82,60809,9.13,73244.5,-5.71,-10.67,-10.41,0,*50
1488175213.03,60810,9.13,73254.5,-5.71,-10.53,-10.19,0,*52
1488175214.27,60811,9.13,73254.8,-5.71,-10.41,-10.15,0,*5C
1488175215.51,60812,9.13,73256.3,-5.69,-10.35,-10.09,0,*58
1488175216.77,60813,9.13,73258.0,-5.69,-10.41,-10.15,0,*57
1488175218.0,60814,9.13,73256.0,-5.69,-10.49,-10.09,0,*55
1488175219.24,60815,9.13,73256.3,-5.69,-10.49,-10.15,0,*59
1488175220.51,60816,9.13,73254.8,-5.69,-10.41,-10.15,0,*52
1488175221.74,60817,9.13,73242.0,-5.69,-10.49,-10.27,0,*5A
1488175223.01,60818,9.13,73238.8,-5.69,-10.63,-10.27,0,*5D
1488175224.28,60819,9.13,73244.0,-5.71,-10.67,-10.41,0,*51
1488175225.55,60820,9.13,73246.0,-5.69,-10.63,-10.35,0,*55
1488175226.8,60821,9.13,73236.5,-5.71,-10.67,-10.27,0,*5A
1488175228.06,60822,9.13,73238.8,-5.69,-10.63,-10.23,0,*50
1488175229.28,60823,9.13,73234.5,-5.71,-10.57,-10.19,0,*56
1488175230.51,60824,9.13,73214.3,-5.69,-10.27,-9.97,0,*61
1488175231.71,60825,9.13,73206.5,-5.71,-10.27,-9.89,0,*66
1488175232.96,60826,9.13,73214.0,-5.69,-10.09,-9.83,0,*6A
1488175234.21,60827,9.13,73230.8,-5.69,-10.23,-9.83,0,*63
1488175235.41,60828,9.13,73236.8,-5.71,-10.23,-9.93,0,*64
1488175236.64,60829,9.13,73236.0,-5.69,-10.35,-9.97,0,*6F
1488175237.85,60830,9.13,73236.5,-5.67,-10.35,-9.93,0,*6D
1488175239.05,60831,9.13,73238.3,-5.67,-10.35,-9.97,0,*68
1488175240.27,60832,9.13,73236.5,-5.67,-10.35,-10.15,0,*59
1488175241.48,60833,9.13,73236.3,-5.67,-10.49,-10.15,0,*53
1488175242.68,60834,9.13,73236.5,-5.67,-10.49,-10.23,0,*51
1488175243.91,60835,9.13,73244.0,-5.69,-10.49,-10.23,0,*5E
1488175245.12,60836,9.13,73244.0,-5.67,-10.49,-10.23,0,*53
1488175246.32,60837,9.13,73246.0,-5.67,-10.53,-10.23,0,*59
1488175247.55,60838,9.13,73248.0,-5.69,-10.53,-10.27,0,*5C
1488175248.84,60839,9.13,73244.3,-5.69,-10.63,-10.41,0,*5E
1488175250.13,60840,9.13,73246.0,-5.69,-10.63,-10.41,0,*50
1488175251.38,60841,9.13,73250.0,-5.71,-10.57,-10.41,0,*5F
1488175252.61,60842,9.13,73250.3,-5.67,-10.53,-10.41,0,*5F
1488175253.87,60843,9.13,73254.8,-5.67,-10.63,-10.41,0,*5D
1488175255.14,60844,9.13,73252.8,-5.69,-10.63,-10.35,0,*57
1488175256.38,60845,9.13,73254.3,-5.71,-10.57,-10.41,0,*5B
1488175257.65,60846,9.13,73254.8,-5.71,-10.71,-10.41,0,*5C
1488175258.89,60847,9.13,73250.5,-5.69,-10.53,-10.35,0,*57
1488175260.14,60848,9.13,73242.3,-5.69,-10.41,-10.09,0,*54
1488175261.36,60849,9.13,73242.5,-5.71,-10.45,-10.15,0,*55
1488175262.6,60850,9.13,73242.3,-5.71,-10.41,-10.05,0,*58
1488175263.84,60851,9.13,73236.8,-5.69,-10.27,-10.01,0,*54
1488175265.07,60852,9.13,73240.5,-5.69,-10.35,-9.97,0,*63
1488175266.31,60853,9.13,73242.8,-5.69,-10.35,-10.01,0,*55
1488175267.54,60854,9.13,73238.5,-5.69,-10.35,-9.97,0,*65
1488175268.8,60855,9.13,73232.3,-5.69,-10.41,-10.01,0,*50
1488175270.02,60856,9.13,73230.8,-5.71,-10.53,-10.19,0,*50
1488175271.25,60857,9.13,73224.5,-5.69,-10.49,-10.27,0,*5E
1488175272.49,60858,9.13,73228.5,-5.71,-10.63,-10.45,0,*54
1488175273.76,60859,9.13,73228.8,-5.69,-10.63,-10.35,0,*5B
1488175275.02,60860,9.13,73230.3,-5.69,-10.75,-10.49,0,*5D
1488175276.28,60861,9.13,73234.3,-5.69,-10.75,-10.49,0,*5C
1488175277.54,60862,9.13,73234.3,-5.69,-10.79,-10.53,0,*58
1488175278.8,60863,9.13,73238.8,-5.69,-10.79,-10.53,0,*59
1488175280.04,60864,9.13,73236.0,-5.71,-10.85,-10.67,0,*53
1488175281.25,60865,9.13,73238.0,-5.71,-10.85,-10.53,0,*55
1488175282.48,60866,9.13,73236.0,-5.69,-10.85,-10.53,0,*5F
1488175283.74,60867,9.13,73240.8,-5.69,-10.75,-10.49,0,*5A
1488175284.98,60868,9.13,73244.5,-5.71,-10.79,-10.53,0,*5B
1488175286.21,60869,9.13,73240.3,-5.71,-10.79,-10.53,0,*5A
1488175287.45,60870,9.13,73246.0,-5.71,-10.79,-10.57,0,*56
1488175288.68,60871,9.13,73242.0,-5.73,-10.89,-10.57,0,*5A
1488175289.94,60872,9.13,73246.5,-5.73,-10.75,-10.57,0,*5A
1488175291.2,60873,9.13,73248.0,-5.73,-10.75,-10.57,0,*5B
1488175292.46,60874,9.13,73250.0,-5.73,-10.75,-10.49,0,*53
1488175293.72,60875,9.13,73250.8,-5.73,-10.75,-10.49,0,*52
1488175294.95,60876,9.13,73248.0,-5.75,-10.75,-10.57,0,*58
1488175296.21,60877,9.13,73248.5,-5.73,-10.85,-10.63,0,*57
1488175297.47,60878,9.13,73250.0,-5.73,-10.89,-10.63,0,*54
1488175298.71,60879,9.13,73250.5,-5.75,-10.93,-10.63,0,*58
1488175299.95,60880,9.13,73248.8,-5.75,-10.89,-10.63,0,*55
1488175301.19,60881,9.13,73250.3,-5.75,-11.01,-10.71,0,*56
1488175302.42,60882,9.13,73250.8,-5.75,-10.93,-10.71,0,*5F
1488175303.66,60883,9.13,73252.0,-5.75,-10.93,-10.75,0,*5A
1488175304.9,60884,9.13,73250.5,-5.75,-11.01,-10.75,0,*57
1488175306.17,60885,9.13,73250.8,-5.75,-11.07,-10.75,0,*50
1488175307.41,60886,9.13,73250.3,-5.75,-10.93,-10.75,0,*5F
1488175308.64,60887,9.13,73248.8,-5.75,-11.01,-10.71,0,*50
1488175309.89,60888,9.13,73248.5,-5.79,-10.97,-10.79,0,*55
1488175311.15,60889,9.13,73244.8,-5.77,-10.93,-10.75,0,*52
1488175312.39,60890,9.13,73248.0,-5.79,-10.97,-10.75,0,*50
1488175313.65,60891,9.13,73244.8,-5.77,-10.93,-10.75,0,*5B
1488175314.92,60892,9.13,73244.0,-5.77,-10.97,-10.75,0,*5C
1488175316.16,60893,9.13,73246.3,-5.79,-10.93,-10.75,0,*57
1488175317.43,60894,9.13,73246.3,-5.79,-10.79,-10.67,0,*57
1488175318.66,60895,9.13,73244.8,-5.79,-10.79,-10.53,0,*51
1488175319.9,60896,9.13,73246.8,-5.79,-10.75,-10.49,0,*55
1488175321.13,60897,9.13,73244.3,-5.79,-10.79,-10.53,0,*53
1488175322.37,60898,9.13,73246.3,-5.79,-10.89,-10.63,0,*50
1488175323.6,60899,9.13,73248.8,-5.79,-10.89,-10.63,0,*51
1488175324.85,60900,9.13,73250.8,-5.79,-10.93,-10.67,0,*5F
1488175326.09,60901,9.13,73248.8,-5.79,-10.97,-10.67,0,*5A
1488175327.33,60902,9.13,73248.5,-5.79,-10.97,-10.79,0,*56
1488175328.6,60903,9.13,73248.5,-5.79,-11.07,-10.79,0,*5F
1488175329.83,60904,9.13,73248.0,-5.83,-11.11,-10.79,0,*5A
1488175331.03,60905,9.13,73252.3,-5.83,-11.11,-10.85,0,*58
1488175332.26,60906,9.13,73252.5,-5.83,-11.15,-10.79,0,*5C
1488175333.5,60907,9.13,73250.0,-5.85,-11.15,-10.93,0,*5F
1488175334.7,60908,9.13,73254.5,-5.83,-11.15,-10.85,0,*51
1488175335.93,60909,9.13,73252.8,-5.85,-11.15,-10.93,0,*51
1488175337.13,60910,9.13,73250.8,-5.83,-11.11,-10.93,0,*5B
1488175338.33,60911,9.13,73248.5,-5.83,-11.15,-10.85,0,*59
1488175339.56,60912,9.13,73248.8,-5.85,-11.11,-10.85,0,*58
1488175340.81,60913,9.13,73250.8,-5.85,-11.11,-10.79,0,*5A
1488175342.07,60914,9.13,73250.0,-5.85,-11.11,-10.79,0,*5D
1488175343.33,60915,9.13,73250.8,-5.85,-11.01,-10.71,0,*55
1488175344.59,60916,9.13,73254.0,-5.85,-11.01,-10.71,0,*56
1488175345.85,60917,9.13,73248.3,-5.85,-10.97,-10.71,0,*59
1488175347.08,60918,9.13,73250.5,-5.87,-11.07,-10.85,0,*57
1488175348.31,60919,9.13,73244.5,-5.87,-11.07,-10.85,0,*56
1488175349.51,60920,9.13,73244.0,-5.87,-11.15,-10.85,0,*5F
1488175350.77,60921,9.13,73246.8,-5.89,-11.07,-10.85,0,*53
1488175352.0,60922,9.13,73246.3,-5.89,-11.01,-10.85,0,*56
1488175353.23,60923,9.13,73248.0,-5.89,-11.01,-10.85,0,*57
1488175354.49,60924,9.13,73244.8,-5.89,-11.07,-10.85,0,*56
1488175355.75,60925,9.13,73246.3,-5.89,-11.01,-10.75,0,*5E
1488175356.99,60926,9.13,73248.5,-5.87,-11.01,-10.75,0,*53
1488175358.28,60927,9.13,73248.0,-5.89,-11.07,-10.75,0,*5A
1488175359.57,60928,9.13,73248.0,-5.89,-11.07,-10.75,0,*55
1488175360.8,60929,9.13,73250.5,-5.89,-11.15,-10.85,0,*58
1488175362.03,60930,9.13,73246.5,-5.89,-11.15,-10.89,0,*5C
1488175363.29,60931,9.13,73252.5,-5.89,-11.07,-10.89,0,*5E
1488175364.5,60932,9.13,73250.3,-5.91,-11.23,-10.93,0,*59
1488175365.72,60933,9.13,73246.8,-5.91,-11.23,-10.93,0,*58
1488175366.92,60934,9.13,73244.3,-5.91,-11.19,-10.93,0,*56
1488175368.19,60935,9.13,73248.5,-5.93,-11.29,-10.97,0,*52
1488175369.46,60936,9.13,73244.8,-5.93,-11.29,-10.97,0,*51
1488175370.7,60937,9.13,73246.0,-5.93,-11.23,-10.93,0,*5E
1488175371.94,60938,9.13,73240.8,-5.91,-11.07,-10.89,0,*5E
1488175373.18,60939,9.13,73242.8,-5.93,-11.11,-10.93,0,*51
1488175374.47,60940,9.13,73240.3,-5.93,-11.07,-10.67,0,*53
1488175375.74,60941,9.13,73244.0,-5.93,-10.93,-10.67,0,*5E
1488175376.98,60942,9.13,73244.0,-5.93,-10.85,-10.53,0,*5D
1488175378.19,60943,9.13,73244.0,-5.91,-10.85,-10.53,0,*5E
1488175379.42,60944,9.13,73246.0,-5.91,-10.93,-10.71,0,*5E
1488175380.66,60945,9.13,73246.3,-5.91,-11.01,-10.75,0,*51
1488175381.89,60946,9.13,73246.5,-5.93,-11.11,-10.85,0,*5E
1488175383.12,60947,9.13,73246.3,-5.93,-11.11,-10.85,0,*5F
1488175384.36,60948,9.13,73244.8,-5.93,-11.15,-10.93,0,*53
1488175385.6,60949,9.13,73246.5,-5.93,-11.11,-10.93,0,*56
1488175386.83,60950,9.13,73248.0,-5.93,-11.15,-10.93,0,*5A
1488175388.06,60951,9.13,73244.5,-5.93,-11.15,-10.85,0,*5C
1488175389.29,60952,9.13,73242.8,-5.93,-11.15,-10.85,0,*5F
1488175390.56,60953,9.13,73248.0,-5.95,-11.07,-10.79,0,*58
1488175391.77,60954,9.13,73246.8,-5.95,-10.97,-10.85,0,*54
1488175393.01,60955,9.13,73242.5,-5.95,-11.07,-10.85,0,*5D
1488175394.28,60956,9.13,73244.8,-5.95,-11.07,-10.79,0,*5D
1488175395.54,60957,9.13,73242.3,-5.95,-11.07,-10.79,0,*5C
1488175396.81,60958,9.13,73246.0,-5.95,-11.07,-10.79,0,*53
1488175398.07,60959,9.13,73242.5,-5.97,-11.07,-10.79,0,*50
1488175399.31,60960,9.13,73242.5,-5.95,-11.07,-10.85,0,*5B
1488175400.51,60961,9.13,73244.5,-5.95,-11.11,-10.85,0,*5D
1488175401.75,60962,9.13,73242.0,-5.95,-11.07,-10.85,0,*59
1488175402.98,60963,9.13,73240.5,-5.95,-11.07,-10.85,0,*58
1488175404.18,60964,9.13,73240.5,-5.97,-11.11,-10.85,0,*5A
1488175405.39,60965,9.13,73242.3,-5.95,-11.15,-10.85,0,*5D
1488175406.59,60966,9.13,73244.5,-5.97,-11.15,-10.85,0,*5C
1488175407.78,60967,9.13,73246.5,-5.97,-11.11,-10.85,0,*59
1488175408.99,60968,9.13,73244.8,-5.95,-11.15,-10.85,0,*50
1488175410.22,60969,9.13,73246.8,-5.97,-11.07,-10.85,0,*50
1488175411.44,60970,9.13,73244.3,-5.97,-11.07,-10.85,0,*58
1488175412.68,60971,9.13,73246.3,-5.97,-10.97,-10.79,0,*52
1488175413.94,60972,9.13,73242.5,-5.97,-11.07,-10.79,0,*59
1488175415.2,60973,9.13,73242.3,-5.97,-11.07,-10.79,0,*58
1488175416.43,60974,9.13,73240.5,-5.99,-11.11,-10.89,0,*59
1488175417.65,60975,9.13,73244.5,-5.99,-11.15,-10.89,0,*5C
1488175418.86,60976,9.13,73242.5,-6.01,-11.11,-10.89,0,*59
1488175420.09,60977,9.13,73242.0,-5.99,-11.11,-10.89,0,*5A
1488175421.31,60978,9.13,73240.3,-5.99,-11.01,-10.85,0,*58
1488175422.53,60979,9.13,73246.3,-5.99,-11.11,-10.85,0,*58
1488175423.76,60980,9.13,73242.3,-5.99,-11.01,-10.85,0,*5F
1488175424.99,60981,9.13,73244.3,-5.99,-11.01,-10.85,0,*5E
1488175426.22,60982,9.13,73244.3,-5.99,-11.01,-10.89,0,*51
1488175427.44,60983,9.13,73246.5,-5.99,-11.11,-10.85,0,*5D
1488175428.65,60984,9.13,73246.0,-6.01,-11.15,-10.89,0,*50
1488175429.88,60985,9.13,73246.3,-5.99,-11.19,-10.97,0,*50
1488175431.1,60986,9.13,73246.5,-5.99,-11.19,-10.97,0,*53
1488175432.31,60987,9.13,73246.8,-6.01,-11.15,-10.97,0,*5C
1488175433.52,60988,9.13,73246.8,-6.01,-11.15,-10.97,0,*53
1488175434.73,60989,9.13,73248.0,-6.01,-11.15,-10.97,0,*52
1488175435.93,60990,9.13,73242.5,-6.01,-11.01,-10.85,0,*5C
1488175437.14,60991,9.13,73244.5,-6.01,-11.01,-10.85,0,*5D
1488175438.38,60992,9.13,73242.8,-6.01,-10.97,-10.75,0,*5F
1488175439.61,60993,9.13,73242.5,-6.01,-10.97,-10.71,0,*5A
1488175440.85,60994,9.13,73240.3,-6.01,-10.97,-10.71,0,*5D
1488175442.05,60995,9.13,73242.3,-6.01,-10.89,-10.57,0,*57
1488175443.29,60996,9.13,73244.5,-6.01,-10.63,-10.31,0,*50
1488175444.5,60997,9.13,73244.3,-6.01,-10.49,-10.19,0,*53
1488175445.73,60998,9.13,73246.0,-5.99,-10.49,-10.19,0,*5E
1488175446.96,60999,9.13,73248.0,-5.99,-10.57,-10.27,0,*5D
1488175448.18,61000,9.13,73244.3,-6.01,-10.57,-10.27,0,*57
1488175449.44,61001,9.13,73244.8,-5.99,-10.63,-10.35,0,*50
1488175450.69,61002,9.13,73244.8,-5.99,-10.75,-10.49,0,*5F
1488175451.93,61003,9.13,73248.0,-6.01,-10.75,-10.45,0,*50
1488175453.13,61004,9.13,73244.5,-6.01,-10.85,-10.49,0,*54
1488175454.33,61005,9.13,73244.0,-6.01,-10.85,-10.57,0,*5A
1488175455.59,61006,9.13,73244.0,-5.99,-10.85,-10.63,0,*5C
1488175456.82,61007,9.13,73246.5,-6.01,-10.85,-10.71,0,*5C
1488175458.07,61008,9.13,73244.5,-5.99,-10.89,-10.71,0,*5D
1488175459.3,61009,9.13,73244.5,-6.01,-10.89,-10.63,0,*5D
1488175460.5,61010,9.13,73246.5,-6.01,-10.85,-10.49,0,*51
1488175461.73,61011,9.13,73244.8,-5.99,-10.85,-10.49,0,*52
1488175462.96,61012,9.13,73246.8,-5.99,-10.85,-10.57,0,*5E
1488175464.19,61013,9.13,73246.3,-5.99,-10.85,-10.57,0,*5F
1488175465.42,61014,9.13,73244.3,-6.01,-10.89,-10.63,0,*51
1488175466.62,61015,9.13,73248.8,-6.01,-10.89,-10.57,0,*57
1488175467.83,61016,9.13,73248.8,-6.01,-10.89,-10.49,0,*5B
1488175469.08,61017,9.13,73250.8,-5.99,-10.89,-10.63,0,*50
1488175470.34,61018,9.13,73252.8,-5.99,-10.89,-10.63,0,*5F
1488175471.57,61019,9.13,73246.0,-6.01,-10.89,-10.63,0,*5C
1488175472.8,61020,9.13,73248.5,-6.01,-10.97,-10.71,0,*5A
1488175474.01,61021,9.13,73248.8,-6.01,-10.97,-10.85,0,*50
1488175475.21,61022,9.13,73248.3,-6.01,-10.97,-10.85,0,*53
1488175476.42,61023,9.13,73248.5,-6.01,-11.01,-10.85,0,*5C
1488175477.64,61024,9.13,73250.5,-5.99,-11.11,-10.85,0,*58
1488175478.84,61025,9.13,73248.8,-6.01,-11.01,-10.85,0,*5A
1488175480.08,61026,9.13,73250.0,-6.01,-10.97,-10.71,0,*5C
1488175481.28,61027,9.13,73250.3,-6.01,-10.97,-10.85,0,*56
1488175482.51,61028,9.13,73250.0,-5.99,-10.97,-10.85,0,*5B
1488175483.71,61029,9.13,73240.8,-6.01,-11.01,-10.85,0,*56
1488175484.94,61030,9.13,73244.0,-5.99,-11.01,-10.89,0,*50
1488175486.15,61031,9.13,73244.3,-6.05,-11.15,-10.93,0,*59
1488175487.39,61032,9.13,73242.8,-6.05,-11.07,-10.93,0,*59
1488175488.6,61033,9.13,73242.5,-6.05,-11.01,-10.89,0,*55
1488175489.84,61034,9.13,73246.8,-6.05,-10.97,-10.79,0,*53
1488175491.08,61035,9.13,73248.5,-6.01,-10.97,-10.75,0,*5A
1488175492.32,61036,9.13,73248.5,-6.01,-11.01,-10.75,0,*57
1488175493.51,61037,9.13,73250.8,-6.01,-11.11,-10.85,0,*58
1488175494.72,61038,9.13,73244.0,-6.01,-11.11,-10.89,0,*5B
1488175495.95,61039,9.13,73252.8,-6.07,-11.19,-10.97,0,*5B
1488175497.16,61040,9.13,73250.8,-6.05,-11.15,-10.93,0,*5F
1488175498.4,61041,9.13,73250.0,-6.07,-11.19,-10.97,0,*54
1488175499.65,61042,9.13,73250.3,-6.07,-11.19,-10.79,0,*57
1488175500.89,61043,9.13,73254.8,-6.05,-10.93,-10.75,0,*5B
1488175502.1,61044,9.13,73258.0,-6.05,-10.89,-10.53,0,*53
1488175503.31,61045,9.13,73252.8,-6.05,-10.89,-10.49,0,*59
1488175504.54,61046,9.13,73254.8,-6.07,-10.93,-10.57,0,*5C
1488175505.78,61047,9.13,73252.5,-6.05,-10.89,-10.63,0,*53
1488175507.02,61048,9.13,73250.3,-6.05,-10.93,-10.67,0,*53
1488175508.26,61049,9.13,73246.5,-6.05,-10.93,-10.75,0,*51
1488175509.5,61050,9.13,73244.3,-6.05,-11.01,-10.79,0,*5F
1488175510.78,61051,9.19,73246.8,-6.07,-11.07,-10.71,0,*52
1488175511.99,61052,9.13,73246.8,-6.01,-10.57,-10.31,0,*57
1488175513.19,61053,9.13,73240.3,-6.05,-10.53,-10.23,0,*55
1488175514.4,61054,9.13,73236.5,-6.05,-10.31,-9.97,0,*61
1488175515.6,61055,9.13,73242.0,-6.05,-10.19,-9.97,0,*6A
1488175516.8,61056,9.13,73240.8,-6.01,-10.15,-9.79,0,*61
1488175518.01,61057,9.13,73242.5,-6.01,-10.19,-9.89,0,*63
1488175519.22,61058,9.13,73244.0,-6.01,-10.31,-10.01,0,*5E
1488175520.43,61059,9.13,73242.8,-6.01,-10.45,-10.15,0,*59
1488175521.69,61060,9.13,73242.3,-5.99,-10.63,-10.27,0,*54
1488175522.92,61061,9.13,73244.8,-6.01,-10.71,-10.49,0,*5C
1488175524.13,61062,9.13,73244.5,-6.01,-10.85,-10.49,0,*54
1488175525.36,61063,9.13,73236.3,-6.01,-10.75,-10.49,0,*5A
1488175526.56,61064,9.13,73236.0,-6.01,-10.85,-10.57,0,*5D
1488175527.77,61065,9.13,73234.3,-6.01,-10.85,-10.57,0,*5C
1488175528.99,61066,9.13,73234.8,-5.99,-10.85,-10.45,0,*5E
1488175530.22,61067,9.13,73236.8,-5.99,-10.85,-10.49,0,*53
1488175531.43,61068,9.13,73236.3,-6.01,-10.85,-10.49,0,*5E
1488175532.66,61069,9.13,73232.8,-6.01,-10.85,-10.63,0,*57
1488175533.91,61070,9.13,73232.0,-5.99,-10.89,-10.71,0,*52
1488175535.17,61071,9.13,73234.8,-5.99,-10.97,-10.71,0,*5C
1488175536.4,61072,9.13,73228.5,-6.01,-11.01,-10.71,0,*53
1488175537.63,61073,9.13,73230.3,-6.01,-11.11,-10.75,0,*57
1488175538.89,61074,9.13,73234.0,-5.99,-11.01,-10.75,0,*53
1488175540.12,61075,9.13,73232.5,-5.99,-11.01,-10.85,0,*5D
1488175541.32,61076,9.13,73238.5,-6.01,-11.15,-10.89,0,*55
1488175542.53,61077,9.13,73240.8,-6.01,-11.15,-10.89,0,*54
1488175543.72,61078,9.13,73236.5,-6.01,-11.19,-10.85,0,*5B
1488175544.93,61079,9.13,73240.8,-6.01,-11.11,-10.89,0,*5E
1488175546.15,61080,9.13,73236.3,-5.99,-11.01,-10.85,0,*57
1488175547.36,61081,9.13,73242.3,-6.05,-11.15,-10.89,0,*59
1488175548.57,61082,9.13,73240.5,-6.05,-11.15,-10.93,0,*51
1488175549.77,61083,9.13,73244.8,-6.05,-11.19,-10.93,0,*5C
1488175550.98,61084,9.13,73246.3,-6.05,-11.19,-10.89,0,*50
1488175552.18,61085,9.13,73250.8,-6.05,-11.19,-10.93,0,*5A
1488175553.42,61086,9.13,73252.5,-6.05,-11.07,-10.89,0,*5D
1488175554.66,61087,9.13,73254.0,-6.05,-10.93,-10.67,0,*50
1488175555.9,61088,9.13,73254.0,-6.05,-10.93,-10.67,0,*5F
1488175557.14,61089,9.13,73250.5,-6.05,-10.93,-10.67,0,*5E
1488175558.41,61090,9.13,73254.8,-6.07,-10.97,-10.71,0,*57
1488175559.65,61091,9.19,73256.0,-6.05,-11.01,-10.67,0,*5D
1488175560.89,61092,9.13,73254.5,-6.05,-11.01,-10.75,0,*5D
1488175562.13,61093,9.13,73254.5,-6.05,-11.01,-10.75,0,*5C
1488175563.4,61094,9.13,73252.5,-6.07,-10.97,-10.67,0,*54
1488175564.64,61095,9.13,73252.8,-6.05,-10.79,-10.35,0,*50
1488175565.88,61096,9.13,73240.3,-6.05,-10.67,-10.31,0,*58
1488175567.13,61097,9.13,73232.8,-6.07,-10.57,-10.27,0,*5F
1488175568.37,61098,9.13,73234.8,-6.05,-10.67,-10.31,0,*56
1488175569.61,61099,9.13,73234.3,-6.05,-10.63,-10.31,0,*53
1488175570.84,61100,9.13,73236.0,-6.05,-10.63,-10.23,0,*51
1488175572.09,61101,9.13,73232.8,-6.05,-10.67,-10.31,0,*57
1488175573.29,61102,9.13,73234.0,-6.05,-10.53,-10.31,0,*53
1488175574.49,61103,9.13,73238.0,-6.05,-10.53,-10.23,0,*51
1488175575.71,61104,9.13,73230.0,-6.05,-10.49,-10.19,0,*54
1488175576.92,61105,9.13,73226.0,-6.01,-10.35,-10.15,0,*56
1488175578.13,61106,9.13,73216.0,-6.01,-10.35,-10.05,0,*54
1488175579.34,61107,9.13,73214.0,-6.01,-10.35,-10.05,0,*55
1488175580.57,61108,9.13,73208.8,-5.99,-10.45,-10.15,0,*5E
1488175581.8,61109,9.13,73210.0,-5.99,-10.49,-10.15,0,*53
1488175583.01,61110,9.13,73210.0,-6.01,-10.57,-10.27,0,*57
1488175584.22,61111,9.19,73228.0,-6.01,-10.49,-10.27,0,*59
1488175585.45,61112,9.13,73234.0,-5.99,-10.49,-10.15,0,*59
1488175586.69,61113,9.13,73232.8,-5.99,-10.35,-10.15,0,*53
1488175587.92,61114,9.13,73236.0,-5.99,-10.49,-10.19,0,*53
1488175589.16,61115,9.13,73238.3,-5.99,-10.57,-10.19,0,*5D
1488175590.42,61116,9.13,73240.5,-5.99,-10.63,-10.31,0,*53
1488175591.68,61117,9.13,73242.8,-5.99,-10.71,-10.35,0,*55
1488175592.92,61118,9.13,73240.5,-5.99,-10.85,-10.35,0,*51
1488175594.17,61119,9.13,73236.0,-5.99,-10.75,-10.49,0,*54
1488175595.43,61120,9.13,73238.5,-5.99,-10.85,-10.63,0,*59
1488175596.68,61121,9.13,73244.5,-5.99,-10.85,-10.63,0,*58
1488175597.94,61122,9.13,73246.0,-5.99,-10.89,-10.63,0,*57
1488175599.16,61123,9.13,73244.8,-6.01,-10.89,-10.71,0,*57
1488175600.39,61124,9.13,73244.8,-6.01,-10.89,-10.63,0,*53
1488175601.65,61125,9.19,73252.3,-5.99,-10.89,-10.63,0,*50
1488175602.88,61126,9.13,73246.3,-5.99,-10.89,-10.57,0,*54
1488175604.11,61127,9.13,73248.3,-6.01,-10.89,-10.63,0,*50
1488175605.31,61128,9.13,73250.3,-6.01,-10.89,-10.57,0,*58
1488175606.55,61129,9.13,73250.3,-6.01,-10.89,-10.63,0,*5E
1488175607.75,61130,9.13,73248.0,-6.01,-10.85,-10.57,0,*5D
1488175608.98,61131,9.13,73248.3,-5.99,-10.85,-10.57,0,*5E
1488175610.21,61132,9.13,73246.8,-6.01,-10.85,-10.63,0,*58
1488175611.47,61133,9.13,73246.8,-5.99,-10.97,-10.71,0,*5B
1488175612.72,61134,9.13,73244.0,-5.99,-10.89,-10.75,0,*57
1488175613.98,61135,9.13,73248.0,-5.99,-10.97,-10.75,0,*59
1488175615.22,61136,9.13,73242.0,-6.01,-11.01,-10.71,0,*52
1488175616.45,61137,9.13,73246.8,-6.01,-11.01,-10.71,0,*53
1488175617.68,61138,9.13,73246.0,-6.01,-10.89,-10.71,0,*5D
1488175618.92,61139,9.13,73242.8,-6.01,-11.01,-10.63,0,*5E
1488175620.15,61140,9.13,73238.8,-6.01,-10.89,-10.71,0,*52
1488175621.38,61141,9.13,73238.8,-6.01,-10.89,-10.63,0,*50
1488175622.61,61142,9.13,73240.5,-6.01,-10.89,-10.63,0,*53
1488175623.81,61143,9.19,73246.8,-6.01,-10.85,-10.57,0,*59
1488175625.02,61144,9.13,73240.5,-6.01,-10.85,-10.57,0,*5E
1488175626.22,61145,9.13,73244.8,-6.01,-10.85,-10.49,0,*50
1488175627.45,61146,9.13,73250.0,-6.01,-10.75,-10.45,0,*50
1488175628.65,61147,9.13,73246.8,-6.01,-10.85,-10.45,0,*5E
1488175629.89,61148,9.13,73250.0,-6.01,-10.75,-10.49,0,*52
1488175631.12,61149,9.13,73250.8,-6.01,-10.75,-10.45,0,*5F
1488175632.35,61150,9.19,73248.5,-6.01,-10.71,-10.31,0,*50
1488175633.57,61151,9.13,73246.0,-6.01,-10.57,-10.27,0,*52
1488175634.78,61152,9.13,73244.3,-6.01,-10.35,-10.15,0,*54
1488175635.98,61153,9.13,73242.5,-6.01,-10.31,-10.05,0,*50
1488175637.2,61154,9.19,73234.5,-6.01,-10.57,-10.15,0,*56
1488175638.41,61155,9.13,73228.3,-6.01,-10.49,-10.15,0,*58
1488175639.62,61156,9.13,73220.3,-6.01,-10.35,-10.15,0,*50
1488175640.83,61157,9.13,73224.8,-6.01,-10.35,-10.05,0,*50
1488175642.06,61158,9.13,73228.0,-5.99,-10.31,-10.15,0,*58
1488175643.3,61159,9.13,73234.0,-5.99,-10.45,-10.15,0,*5A
1488175644.53,61160,9.13,73242.5,-5.99,-10.57,-10.27,0,*52
1488175645.76,61161,9.13,73244.3,-5.99,-10.57,-10.35,0,*50
1488175647.0,61162,9.13,73240.8,-5.99,-10.49,-10.19,0,*52
1488175648.21,61163,9.13,73242.5,-6.01,-10.45,-10.19,0,*5D
1488175649.42,61164,9.13,73240.8,-6.01,-10.49,-10.27,0,*5B
1488175650.65,61165,9.19,73246.3,-6.01,-10.63,-10.31,0,*55
1488175651.89,61166,9.13,73248.5,-6.01,-10.63,-10.31,0,*56
1488175653.15,61167,9.13,73246.5,-5.99,-10.71,-10.35,0,*52
1488175654.41,61168,9.13,73244.8,-5.99,-10.71,-10.35,0,*5D
1488175655.67,61169,9.13,73248.3,-5.99,-10.71,-10.45,0,*5B
1488175656.93,61170,9.13,73250.0,-5.99,-10.75,-10.45,0,*57
1488175658.18,61171,9.13,73248.0,-5.99,-10.75,-10.49,0,*5A
1488175659.41,61172,9.13,73244.8,-5.99,-10.85,-10.45,0,*5A
1488175660.64,61173,9.13,73242.8,-5.99,-10.85,-10.49,0,*57
1488175661.87,61174,9.13,73246.3,-5.99,-10.85,-10.57,0,*5F
1488175663.07,61175,9.13,73244.3,-6.01,-10.85,-10.57,0,*5C
1488175664.3,61176,9.19,73244.3,-5.99,-10.85,-10.57,0,*5D
1488175665.55,61177,9.13,73242.8,-5.99,-10.89,-10.63,0,*57
1488175666.79,61178,9.13,73242.0,-6.01,-10.97,-10.71,0,*56
1488175668.01,61179,9.19,73246.5,-6.01,-10.89,-10.71,0,*58
1488175669.27,61180,9.19,73244.0,-5.99,-10.97,-10.71,0,*53
1488175670.53,61181,9.19,73242.0,-5.99,-10.97,-10.71,0,*52
1488175671.79,61182,9.13,73240.3,-5.99,-10.97,-10.63,0,*52
1488175673.02,61183,9.13,73238.5,-6.01,-10.89,-10.63,0,*5E
1488175674.26,61184,9.13,73238.8,-6.01,-10.97,-10.75,0,*51
1488175675.49,61185,9.13,73236.5,-6.01,-10.89,-10.71,0,*5B
1488175676.73,61186,9.13,73238.8,-6.01,-10.97,-10.71,0,*57
1488175677.96,61187,9.13,73236.8,-6.01,-11.11,-10.75,0,*5D
1488175679.19,61188,9.13,73238.8,-6.01,-11.01,-10.71,0,*57
1488175680.42,61189,9.13,73240.0,-6.01,-10.89,-10.63,0,*54
1488175681.63,61190,9.13,73242.8,-6.01,-10.85,-10.49,0,*58
1488175682.83,61191,9.13,73246.5,-6.01,-10.85,-10.45,0,*55
1488175684.04,61192,9.13,73244.3,-6.01,-10.85,-10.49,0,*5A
1488175685.25,61193,9.13,73246.5,-6.01,-10.97,-10.57,0,*57
1488175686.48,61194,9.13,73246.3,-6.01,-10.89,-10.63,0,*58
1488175687.72,61195,9.13,73244.8,-6.01,-10.97,-10.75,0,*51
1488175688.95,61196,9.19,73244.8,-6.01,-10.89,-10.63,0,*5A
1488175690.15,61197,9.13,73244.0,-6.01,-10.89,-10.57,0,*5C
1488175691.38,61198,9.19,73242.8,-6.01,-10.75,-10.49,0,*5F
1488175692.62,61199,9.13,73238.8,-6.07,-10.93,-10.57,0,*5F
1488175693.85,61200,9.19,73240.5,-6.01,-10.85,-10.63,0,*5A
1488175695.08,61201,9.13,73236.8,-6.01,-10.75,-10.57,0,*53
1488175696.29,61202,9.13,73242.8,-6.01,-10.85,-10.57,0,*5F
1488175697.49,61203,9.13,73246.5,-6.01,-10.85,-10.45,0,*5D
1488175698.7,61204,9.19,73246.0,-6.01,-10.85,-10.49,0,*56
1488175699.93,61205,9.19,73248.5,-6.01,-10.85,-10.63,0,*5F
1488175701.16,61206,9.19,73248.0,-6.01,-10.97,-10.71,0,*5C